Zurück zum Katalog

STARLINK-11166

AktivKommunikationVLEO
NORAD 60062·PAYLOAD·🇺🇸 United States

Gestartet Jun 19, 2024 von Vandenberg Space Force Base

Loading…

Nächste Überflüge (nächste 24 Stunden)

TLE

AktuellSource: CelesTrak SupGP

Epoche: Sep 14, 2026, 14:29 UTC

1 60062C 24113D   26257.60395833  .00037667  00000+0  31035-3 0  2574
2 60062  53.1567 339.8950 0001256  78.7001 254.1734 15.69684678    14

Verfolge STARLINK-11166 in Echtzeit mit AllMySat

Download on the App Store